Starlink 35251

operational
NORAD ID: 65604 Int'l Des: 2025-207 Owner: SPXS Country: US Constellation: starlink
NOTLE

Starlink 35251について

説明を読み込み中...

リアルタイム位置

3D地球を読み込み中...

次回通過

高度履歴

Altitude vs Time

uPlot chart will show altitude changes over time

軌道要素

1 65604U 25207N 25354.58336806 -.02539882 00000-0 -10096+0 0 9999
2 65604 97.6027 60.6047 0001340 66.3415 241.8119 15.28885110 5886
Epoch: Dec 20, 2025 • Age: 12 hours

現在のステータス

高度 498.8 km
速度 7.62 km/s
衛星直下点 73.14°N, 78.14°W
打ち上げ日 Sep 13, 2025
運用期間 0.2 years
タイプ internet

技術仕様

分類 Payload
質量 575.00 kg
乾燥質量 530.00 kg
総質量 575.00 kg
長さ 0.30 m
直径 4.10 m
スパン 29.00 m
形状 Box + pan
製造者 SPXS
バスタイプ Starlink V2MO
フェーズステータス In Orbit
所有者/国 SPXS/US

大規模コンステレーション

Loading constellations...